Back to catalog

FENGYUN 1C DEB

AlivePO
NORAD 32125·DEBRIS·🇨🇳 China

Launched May 10, 1999 from Taiyuan Satellite Launch Center

Loading…

Next Passes (next 24 hours)

TLE

FreshSource: Space-Track

Epoch: Sep 14, 2026, 06:18 UTC

1 32125U 99025CRT 26257.26292028  .00006446  00000-0  75284-3 0  9990
2 32125  99.0692 275.2258 0155334 184.8727 175.0977 14.77221299745825

Track FENGYUN 1C DEB in real time with AllMySat

Download on the App Store